Weather in Supra

Russia / Tyumen Oblast     57°59′50″N   69°33′40″E
temp.,
°C
wind,
m/s
gust,
m/s
humid.,
%
clouds,
%
prec.,
mm/h
press.,
hPa
HPBL,
m
8 may, sat
sat823:00+13wsw3125461 0.0 1017306
02:00+10wsw266649 0.0 1018118
05:00+10wsw311655 0.0 1018249
08:00+16w364714 0.0 1018444
11:00+21w36355 0.0 10182185
14:00+23wnw352679 0.0 10173037
17:00+23nw23259 0.0 10172792
20:00+18ene384699 0.0 1017279
9 may, sun
sun923:00+15e395997 0.0 1018236
02:00+14ese3106698 0.1 1018261
05:00+12ene3883100 0.8 1019246
08:00+15e4766100 0.5 1020372
11:00+19e454490 0.6 1020845
14:00+22e343373 0.0 10202124
17:00+21e453764 0.0 10201577
20:00+16e384917 0.0 1021232
10 may, mon
mon1023:00+13e310605 0.0 1023265
02:00+10e29655 0.0 1023197
05:00+9ene27645 0.0 1024166
08:00+14e35401 0.0 1025662
11:00+18ene36335 0.0 10251882
14:00+19ne46295 0.0 10242435
17:00+19ne45285 0.0 10232331
20:00+14ene22450 0.0 102330
11 may, tue
tue1123:00+10ene11540 0.0 102310
02:00+9se11620 0.0 102310
05:00+8ssw11650 0.0 102310
08:00+15ese00440 0.0 1022388
11:00+20ene01300 0.0 10211603
14:00+22w1224100 0.0 10201991
17:00+21wnw2322100 0.0 10192246
20:00+16sw1134100 0.0 101811
12 may, wed
wed1223:00+13nw3979100 0.1 1019435
02:00+11nnw3884100 0.1 1018484
05:00+9n478499 0.1 1019521
08:00+10nnw467688 0.0 1020637
11:00+9nnw567699 0.0 1021645
14:00+11n566984 0.0 1021840
17:00+12n466130 0.0 10221042
20:00+10nne37645 0.0 1022402